Find Starlink 1185

NORAD ID: 45087 Int'l Des: 2020-006 Owner: SPXS Country: US Constellation: starlink operational
LEOCIRCULAR

实时位置

正在加载3D地球...

关于 Starlink 1185

正在加载描述...

即将过境

Passes for default location (London). Set your location on the main map for personalized predictions.

高度历史

Loading altitude history...

两行轨道根数

1 45087U 20006AV 26132.75536567 .00034788 00000-0 77747-3 0 9995
2 45087 53.1607 300.9411 0002439 277.0879 82.9850 15.43207912346957
Epoch: May 12, 2026 • Age: 6 hours

当前状态

高度 442.8 km
速度 7.65 km/s
星下点 45.55°N, 109.04°E
发射日期 Jan 29, 2020
运行时间 6.2 years
类型 internet

技术详情

分类 Payload
质量 260.00 kg
干质量 248.00 kg
总质量 260.00 kg
长度 0.20 m
直径 2.80 m
跨度 9.00 m
形状 Box + pan
制造商 SPXS
平台类型 Starlink
阶段状态 In Orbit
所有者/国家 SPXS/US

Most Searched